Погода в Ракитино

Россия / Новгородская область     58°53′55″N   34°10′11″E
темп.,
°C
ветер,
м/с
пор.,
м/с
влажн.,
%
обл.,
%
осадки,
мм/ч
давл.,
гПа
погр.,
м
17 апреля, сб
сб1700:00+5всв4136863 0.0 1029447
03:00+5всв4127285 0.0 1029451
06:00+3всв413828 0.0 1029378
09:00+7в510605 0.0 1029545
12:00+11всв58405 0.0 1029983
15:00+13всв57345 0.0 10281271
18:00+12всв47435 0.0 10271166
21:00+7св311665 0.0 1028319
18 апреля, вс
вс1800:00+5св312730 0.0 1029361
03:00+3св311834 0.0 1029289
06:00+2св311870 0.0 1029320
09:00+7всв49590 0.0 1029717
12:00+11всв58405 0.0 10281591
15:00+12всв58395 0.0 10281864
18:00+10в4851100 0.0 10281461
21:00+7всв3106487 0.0 1029536
19 апреля, пн
пн1900:00+5всв3107871 0.0 1030366
03:00+4всв398912 0.0 1030344
06:00+2всв399320 0.0 1031303
09:00+6всв48645 0.0 1030709
12:00+9в46445 0.0 10291364
15:00+11в46355 0.0 10291761
18:00+10в46405 0.0 10281782
21:00+4в29614 0.0 1029231
20 апреля, вт
вт2000:00+3в3116565 0.0 1028322
03:00+1всв310785 0.0 1028259
06:00+1в31075100 0.0 1027337
09:00+5в595298 0.0 1025718
12:00+8в58395 0.0 10231300
15:00+10вюв584573 0.0 10211567
18:00+8в4956100 0.0 10191165
21:00+7в51261100 0.1 10161215
21 апреля, ср
ср2100:00+6в61462100 0.0 10121090
03:00+3в61592100 1.4 1008959
06:00+2в61596100 2.1 1005804
09:00+2в51597100 5.3 1002678
12:00+4в51396100 0.4 1000682
15:00+5в51194100 1.2 9981031
18:00+5ююв5997100 1.3 997896
21:00+3юв3898100 2.0 998960